Regional Weather Roundup
Issued by NWS

Home | Current Version | Previous Version | Text Only | Print | Product List | Glossary Off
Versions: 1 2 3 4 5 6 7 8 9 10 11 12 13 14 15 16 17 18 19 20 21 22 23 24 25 26 27 28 29 30 31 32 33 34 35 36 37 38 39 40 41 42 43 44 45 46 47 48 49 50

480
ASUS43 KLMK 261110
RWRKY
KENTUCKY REGIONAL WEATHER ROUNDUP
NATIONAL WEATHER SERVICE LOUISVILLE KY
700 AM EDT MON JUN 26 2017

NOTE "FAIR" INDICATES FEW OR NO CLOUDS BELOW 12,000 FEET
WITH NO SIGNIFICANT WEATHER AND/OR OBSTRUCTIONS TO VISIBILITY.

KYZ001>023-026-027-061>063-070>075-261200-
WESTERN AND SOUTH CENTRAL KENTUCKY

CITY           SKY/WX    TMP DP  RH WIND       PRES   REMARKS
PADUCAH        CLOUDY    63  57  81 CALM      30.20R
HENDERSON      CLEAR     53  51  93 CALM      30.20S
OWENSBORO      CLOUDY    60  52  74 CALM      30.20R
HOPKINSVILLE   CLOUDY    63  56  78 CALM      30.19S
BOWLING GREEN  MOCLDY    63  57  81 CALM      30.19R
GLASGOW        CLOUDY    58  58 100 CALM      30.19R
$$

KYZ024-025-028>034-038-045-046-053-261200-
NORTH CENTRAL KENTUCKY

CITY           SKY/WX    TMP DP  RH WIND       PRES   REMARKS
LOUISVILLE/SDF PTCLDY    60  51  72 SW5       30.18R
LOUISVILLE/LOU CLEAR     57  53  86 CALM      30.19R
FORT KNOX      PTCLDY    52  51  97 CALM      30.18R
$$

KYZ035>037-039>044-047>052-055>060-089>105-261200-
NORTHEAST KENTUCKY

CITY           SKY/WX    TMP DP  RH WIND       PRES   REMARKS
LEXINGTON      CLEAR     57  47  69 CALM      30.18R
COVINGTON      CLEAR     53  50  89 W5        30.15R
FRANKFORT      CLEAR     54  49  83 CALM      30.17R
$$

KYZ054-064>069-076>088-106>120-261200-
SOUTHEAST KENTUCKY

CITY           SKY/WX    TMP DP  RH WIND       PRES   REMARKS
JACKSON        CLEAR     57  52  83 CALM      30.17S
LONDON         CLOUDY    56  52  86 CALM      30.19R
SOMERSET       CLEAR     54  54 100 CALM      30.21R
MIDDLESBORO    PTCLDY    51  51 100 CALM      30.22R
MONTICELLO     CLOUDY    57  55  93 CALM      30.21R
$$





USA.gov is the U.S. government's official web portal to all federal, state and local government web resources and services.